| time (UTC) | temp F | wind direction | speed MPH | gust MPH | rain 1hr in | rain 24hr in | rain mn in | humidity % | barometer mb |
| 20260503234334 | 51 | 177 | 0.0 | 2.0 | 0.00 | 0.02 | 0.00 | 93 | 1013.3 |
| 20260503232837 | 51 | 180 | 0.0 | 0.0 | 0.00 | 0.02 | 0.00 | 90 | 1013.4 |
| 20260503231835 | 52 | 180 | 0.0 | 0.0 | 0.00 | 0.02 | 0.00 | 90 | 1013.4 |
| 20260503230335 | 53 | 180 | 0.0 | 0.0 | 0.00 | 0.02 | 0.00 | 89 | 1013.6 |
| 20260503225335 | 53 | 180 | 0.0 | 2.0 | 0.00 | 0.02 | 0.00 | 87 | 1013.6 |
| 20260503222836 | 56 | 180 | 2.0 | 0.0 | 0.00 | 0.02 | 0.00 | 87 | 1013.5 |
| 20260503222335 | 56 | 180 | 2.0 | 5.0 | 0.00 | 0.02 | 0.00 | 87 | 1013.4 |
| 20260503220335 | 56 | 176 | 3.0 | 6.0 | 0.00 | 0.02 | 0.00 | 86 | 1013.4 |
| 20260503215838 | 56 | 161 | 4.0 | 5.0 | 0.00 | 0.02 | 0.00 | 86 | 1013.4 |
| 20260503215336 | 56 | 180 | 5.0 | 9.0 | 0.00 | 0.02 | 0.02 | 86 | 1013.5 |
| 20260503214838 | 57 | 174 | 5.0 | 9.0 | 0.00 | 0.02 | 0.02 | 85 | 1013.5 |
| 20260503213835 | 57 | 168 | 5.0 | 9.0 | 0.00 | 0.02 | 0.02 | 85 | 1013.7 |
| 20260503212835 | 57 | 145 | 3.0 | 10.0 | 0.00 | 0.02 | 0.02 | 86 | 1013.7 |
| 20260503210834 | 57 | 164 | 2.0 | 6.0 | 0.00 | 0.02 | 0.02 | 85 | 1013.6 |
| 20260503210334 | 57 | 166 | 2.0 | 5.0 | 0.00 | 0.02 | 0.02 | 86 | 1013.6 |
| 20260503205334 | 57 | 172 | 3.0 | 5.0 | 0.00 | 0.02 | 0.02 | 85 | 1013.5 |
| 20260503204334 | 57 | 174 | 2.0 | 7.0 | 0.00 | 0.02 | 0.02 | 85 | 1013.5 |
| 20260503201335 | 58 | 181 | 5.0 | 8.0 | 0.00 | 0.02 | 0.02 | 84 | 1013.5 |
| 20260503195837 | 58 | 168 | 4.0 | 8.0 | 0.00 | 0.02 | 0.02 | 84 | 1013.5 |
| 20260503194834 | 59 | 177 | 5.0 | 2.0 | 0.00 | 0.02 | 0.02 | 83 | 1013.4 |
| 20260503193834 | 59 | 173 | 5.0 | 8.0 | 0.00 | 0.02 | 0.02 | 83 | 1013.3 |
| 20260503193334 | 59 | 166 | 5.0 | 9.0 | 0.00 | 0.02 | 0.02 | 83 | 1013.3 |
| 20260503192836 | 59 | 163 | 6.0 | 10.0 | 0.00 | 0.02 | 0.02 | 83 | 1013.3 |
| 20260503192335 | 59 | 176 | 6.0 | 9.0 | 0.00 | 0.02 | 0.02 | 83 | 1013.4 |
| 20260503191834 | 59 | 177 | 5.0 | 12.0 | 0.00 | 0.02 | 0.02 | 83 | 1013.4 |
| 20260503191334 | 59 | 192 | 5.0 | 12.0 | 0.00 | 0.02 | 0.02 | 83 | 1013.4 |
| 20260503185836 | 60 | 180 | 3.0 | 6.0 | 0.00 | 0.02 | 0.02 | 82 | 1013.3 |
| 20260503183834 | 60 | 264 | 4.0 | 8.0 | 0.00 | 0.02 | 0.02 | 81 | 1013.1 |
| 20260503182836 | 60 | 209 | 5.0 | 8.0 | 0.00 | 0.02 | 0.02 | 80 | 1013.1 |
| 20260503174835 | 61 | 180 | 8.0 | 15.0 | 0.00 | 0.02 | 0.02 | 80 | 1012.8 |
| 20260503173334 | 61 | 193 | 6.0 | 9.0 | 0.00 | 0.04 | 0.02 | 80 | 1012.7 |
| 20260503172837 | 61 | 179 | 8.0 | 14.0 | 0.00 | 0.04 | 0.02 | 80 | 1012.7 |
| 20260503170334 | 61 | 163 | 8.0 | 12.0 | 0.00 | 0.04 | 0.02 | 81 | 1012.8 |
| 20260503150834 | 60 | 198 | 7.0 | 12.0 | 0.00 | 0.47 | 0.02 | 86 | 1013.2 |
| 20260503150334 | 60 | 181 | 8.0 | 13.0 | 0.00 | 0.47 | 0.02 | 85 | 1013.2 |
| 20260503131334 | 61 | 210 | 8.0 | 14.0 | 0.00 | 0.47 | 0.02 | 82 | 1013.5 |
| 20260503130834 | 61 | 191 | 8.0 | 15.0 | 0.00 | 0.47 | 0.02 | 81 | 1013.5 |
| 20260503081334 | 62 | 203 | 6.0 | 13.0 | 0.00 | 0.49 | 0.00 | 53 | 1013.2 |
| 20260503072835 | 63 | 167 | 7.0 | 16.0 | 0.00 | 0.49 | 0.00 | 53 | 1013.0 |
| 20260503072335 | 63 | 162 | 7.0 | 15.0 | 0.00 | 0.49 | 0.00 | 54 | 1012.9 |
| 20260503071333 | 62 | 175 | 8.0 | 16.0 | 0.00 | 0.49 | 0.00 | 54 | 1012.9 |
| 20260503060334 | 59 | 186 | 2.0 | 8.0 | 0.00 | 0.49 | 0.00 | 65 | 1013.1 |
| 20260503054333 | 59 | 194 | 5.0 | 8.0 | 0.00 | 0.49 | 0.00 | 66 | 1013.2 |
| 20260503053833 | 59 | 189 | 5.0 | 7.0 | 0.00 | 0.49 | 0.00 | 66 | 1013.2 |
| 20260503053335 | 59 | 207 | 5.0 | 8.0 | 0.00 | 0.49 | 0.00 | 66 | 1013.2 |
| 20260503052836 | 59 | 181 | 5.0 | 7.0 | 0.00 | 0.49 | 0.00 | 67 | 1013.2 |
| 20260503052334 | 58 | 187 | 5.0 | 7.0 | 0.00 | 0.49 | 0.00 | 69 | 1013.2 |
| 20260503051334 | 58 | 205 | 3.0 | 12.0 | 0.00 | 0.49 | 0.00 | 71 | 1013.2 |
| 20260503045333 | 57 | 205 | 5.0 | 8.0 | 0.00 | 0.49 | 0.00 | 74 | 1013.2 |
| 20260503044334 | 57 | 179 | 5.0 | 12.0 | 0.00 | 0.49 | 0.00 | 75 | 1013.2 |
| 20260503043833 | 56 | 188 | 3.0 | 9.0 | 0.00 | 0.49 | 0.00 | 76 | 1013.1 |
| 20260503043334 | 56 | 166 | 2.0 | 10.0 | 0.00 | 0.49 | 0.00 | 78 | 1013.1 |
| 20260503042836 | 55 | 165 | 2.0 | 6.0 | 0.00 | 0.49 | 0.00 | 80 | 1013.1 |
| 20260503041833 | 54 | 154 | 2.0 | 7.0 | 0.00 | 0.49 | 0.00 | 87 | 1013.1 |
| 20260503041333 | 54 | 156 | 2.0 | 7.0 | 0.00 | 0.49 | 0.00 | 92 | 1013.1 |
| 20260503035333 | 52 | 153 | 0.0 | 6.0 | 0.00 | 0.49 | 0.00 | 98 | 1013.3 |
| 20260503034333 | 52 | 45 | 0.0 | 2.0 | 0.00 | 0.49 | 0.00 | 98 | 1013.3 |
| 20260503033834 | 52 | 45 | 0.0 | 2.0 | 0.00 | 0.49 | 0.00 | 98 | 1013.3 |
| 20260503032837 | 52 | 45 | 0.0 | 2.0 | 0.00 | 0.49 | 0.00 | 98 | 1013.3 |
| 20260503032334 | 52 | 45 | 0.0 | 1.0 | 0.00 | 0.49 | 0.00 | 97 | 1013.3 |
| 20260503031833 | 52 | 45 | 0.0 | 0.0 | 0.00 | 0.49 | 0.00 | 97 | 1013.3 |
| 20260503030334 | 53 | 45 | 2.0 | 2.0 | 0.00 | 0.49 | 0.00 | 98 | 1013.3 |
| 20260503024334 | 53 | 127 | 0.0 | 6.0 | 0.00 | 0.49 | 0.00 | 98 | 1013.4 |
| 20260503023834 | 53 | 45 | 0.0 | 0.0 | 0.00 | 0.49 | 0.00 | 98 | 1013.6 |
| 20260503023333 | 53 | 45 | 0.0 | 0.0 | 0.00 | 0.49 | 0.00 | 98 | 1013.6 |
| 20260503022835 | 53 | 45 | 0.0 | 0.0 | 0.00 | 0.49 | 0.00 | 98 | 1013.6 |
| 20260503022333 | 53 | 45 | 0.0 | 0.0 | 0.00 | 0.49 | 0.00 | 98 | 1013.5 |
| 20260503020833 | 53 | 46 | 0.0 | 0.0 | 0.00 | 0.49 | 0.00 | 97 | 1013.6 |
| 20260503015333 | 54 | 0 | 0.0 | 0.0 | 0.00 | 0.49 | 0.00 | 98 | 1013.7 |
| 20260503014334 | 54 | 357 | 0.0 | 2.0 | 0.00 | 0.49 | 0.00 | 98 | 1013.7 |
| 20260503012334 | 54 | 353 | 0.0 | 0.0 | 0.00 | 0.49 | 0.00 | 98 | 1013.9 |
| 20260503005835 | 55 | 353 | 0.0 | 0.0 | 0.00 | 0.49 | 0.00 | 98 | 1014.0 |
| 20260503005333 | 55 | 352 | 0.0 | 0.0 | 0.00 | 0.49 | 0.00 | 98 | 1014.0 |
| 20260503003834 | 55 | 354 | 0.0 | 2.0 | 0.00 | 0.49 | 0.00 | 98 | 1014.1 |
| 20260503002836 | 55 | 343 | 0.0 | 0.0 | 0.00 | 0.49 | 0.00 | 98 | 1014.1 |
| 20260503001833 | 54 | 341 | 0.0 | 2.0 | 0.00 | 0.49 | 0.00 | 98 | 1014.3 |
| 20260503001334 | 54 | 312 | 0.0 | 1.0 | 0.00 | 0.49 | 0.00 | 98 | 1014.3 |
| 20260502235835 | 54 | 312 | 0.0 | 0.0 | 0.00 | 0.49 | 0.00 | 97 | 1014.5 |
| 20260502235333 | 54 | 312 | 0.0 | 0.0 | 0.00 | 0.49 | 0.00 | 97 | 1014.5 |